{"data":{"norad_id":62854,"epoch":"2026-05-25T03:32:51.077760Z","epoch_age_seconds":52448,"freshness":"FRESH","line1":"1 62854U 25022A   26145.14781340  .00021051  00000+0  63227-3 0  9993","line2":"2 62854  53.1603 133.2370 0001156 119.6598 240.4520 15.34406896 74437","mean_motion":15.34406896,"eccentricity":0.0001156,"inclination_deg":53.1603,"raan_deg":133.237,"arg_perigee_deg":119.6598,"mean_anomaly_deg":240.452,"bstar":0.00063227,"rev_number":7443,"period_min":93.847336306549,"perigee_km":461.89194515621,"apogee_km":463.473542681,"semimajor_km":6840.8197439186,"source":"CELESTRAK","updated_at":"2026-05-25T13:38:19.782779Z"}}